Time,TemperatureF,DewpointF,PressureIn,WindDirection,WindDirectionDegrees,WindSpeedMPH,WindSpeedGustMPH,Humidity,HourlyPrecipIn,Conditions,Clouds,dailyrainin,SoftwareType,DateUTC
2013-01-07 07:51:00,33.3,29.6,30.09,NNE,25,0.0,2.0,86,0.00,,,0.00,Wunderground v.1.15,2013-01-07 12:51:00,
2013-01-07 08:01:00,33.3,29.6,30.09,NNE,29,0.0,0.0,86,0.00,,,0.00,Wunderground v.1.15,2013-01-07 13:01:00,
2013-01-07 08:11:00,33.5,29.8,30.10,North,349,1.0,2.0,86,0.00,,,0.00,Wunderground v.1.15,2013-01-07 13:11:00,
2013-01-07 08:21:00,34.2,29.9,30.11,NNE,30,3.0,3.0,84,0.00,,,0.00,Wunderground v.1.15,2013-01-07 13:21:00,
2013-01-07 08:31:00,34.4,30.1,30.13,NNE,20,2.0,2.0,84,0.00,,,0.00,Wunderground v.1.15,2013-01-07 13:31:00,
2013-01-07 08:36:00,34.4,30.1,30.13,ENE,63,1.0,2.0,84,0.00,,,0.00,Wunderground v.1.15,2013-01-07 13:36:00,
2013-01-07 08:41:00,34.4,30.1,30.14,NE,50,2.0,2.0,84,0.00,,,0.00,Wunderground v.1.15,2013-01-07 13:41:00,
2013-01-07 08:51:00,34.4,30.1,30.14,NE,49,1.0,3.0,84,0.00,,,0.00,Wunderground v.1.15,2013-01-07 13:51:00,
2013-01-07 09:01:00,34.6,30.0,30.16,North,360,2.0,2.0,83,0.00,,,0.00,Wunderground v.1.15,2013-01-07 14:01:00,
2013-01-07 09:06:00,34.7,29.8,30.16,NW,324,2.0,6.0,82,0.00,,,0.00,Wunderground v.1.15,2013-01-07 14:06:00,
2013-01-07 09:11:00,34.7,29.8,30.16,NNW,334,2.0,2.0,82,0.00,,,0.00,Wunderground v.1.15,2013-01-07 14:11:00,
2013-01-07 09:16:00,34.8,29.9,30.17,NNW,334,1.0,2.0,82,0.00,,,0.00,Wunderground v.1.15,2013-01-07 14:16:00,
2013-01-07 09:21:00,34.8,29.9,30.17,NNW,334,0.0,0.0,82,0.00,,,0.00,Wunderground v.1.15,2013-01-07 14:21:00,
2013-01-07 09:31:00,34.9,30.0,30.19,NNW,334,0.0,0.0,82,0.00,,,0.00,Wunderground v.1.15,2013-01-07 14:31:00,
2013-01-07 09:36:00,34.9,29.7,30.19,NNW,333,0.0,0.0,81,0.00,,,0.00,Wunderground v.1.15,2013-01-07 14:36:00,
2013-01-07 09:46:00,35.1,29.6,30.20,NE,34,1.0,1.0,80,0.00,,,0.00,Wunderground v.1.15,2013-01-07 14:46:00,
2013-01-07 09:56:00,35.4,29.8,30.20,NE,40,1.0,2.0,80,0.00,,,0.00,Wunderground v.1.15,2013-01-07 14:56:00,
2013-01-07 10:06:00,35.9,30.3,30.21,NE,38,1.0,1.0,80,0.00,,,0.00,Wunderground v.1.15,2013-01-07 15:06:00,
2013-01-07 10:16:00,35.5,29.9,30.21,NNE,30,1.0,1.0,80,0.00,,,0.00,Wunderground v.1.15,2013-01-07 15:16:00,
2013-01-07 10:21:00,35.2,29.6,30.21,NE,36,0.0,1.0,80,0.00,,,0.00,Wunderground v.1.15,2013-01-07 15:21:00,
2013-01-07 10:31:00,34.9,29.7,30.21,East,84,1.0,1.0,81,0.00,,,0.00,Wunderground v.1.15,2013-01-07 15:31:00,
2013-01-07 10:36:00,35.0,29.8,30.21,ENE,72,1.0,3.0,81,0.00,,,0.00,Wunderground v.1.15,2013-01-07 15:36:00,
2013-01-07 10:46:00,34.9,30.0,30.21,NE,36,1.0,1.0,82,0.00,,,0.00,Wunderground v.1.15,2013-01-07 15:46:00,
2013-01-07 10:56:00,34.6,29.7,30.21,NE,34,1.0,2.0,82,0.00,,,0.00,Wunderground v.1.15,2013-01-07 15:56:00,
2013-01-07 11:01:00,34.4,29.5,30.21,SE,128,1.0,1.0,82,0.00,,,0.00,Wunderground v.1.15,2013-01-07 16:01:00,
2013-01-07 11:06:00,34.4,29.5,30.21,ESE,122,1.0,1.0,82,0.00,,,0.00,Wunderground v.1.15,2013-01-07 16:06:00,
2013-01-07 11:11:00,34.4,29.5,30.21,NNW,334,1.0,1.0,82,0.00,,,0.01,Wunderground v.1.15,2013-01-07 16:11:00,
2013-01-07 11:21:00,34.4,29.5,30.22,East,92,1.0,1.0,82,0.00,,,0.01,Wunderground v.1.15,2013-01-07 16:21:00,
2013-01-07 11:26:00,34.5,29.6,30.22,ENE,69,1.0,1.0,82,0.00,,,0.01,Wunderground v.1.15,2013-01-07 16:26:00,
2013-01-07 11:31:00,34.5,29.6,30.22,ENE,69,0.0,0.0,82,0.00,,,0.01,Wunderground v.1.15,2013-01-07 16:31:00,
2013-01-07 11:36:00,34.4,29.5,30.23,ENE,69,0.0,0.0,82,0.00,,,0.01,Wunderground v.1.15,2013-01-07 16:36:00,
2013-01-07 11:46:00,34.1,29.2,30.23,ENE,69,0.0,0.0,82,0.00,,,0.01,Wunderground v.1.15,2013-01-07 16:46:00,
2013-01-07 11:56:00,34.1,29.5,30.23,East,83,0.0,0.0,83,0.00,,,0.01,Wunderground v.1.15,2013-01-07 16:56:00,
2013-01-07 12:06:00,34.2,29.6,30.23,NNE,17,1.0,3.0,83,0.00,,,0.01,Wunderground v.1.15,2013-01-07 17:06:00,
2013-01-07 12:16:00,34.4,29.5,30.24,NNE,15,0.0,0.0,82,0.00,,,0.01,Wunderground v.1.15,2013-01-07 17:16:00,
2013-01-07 12:21:00,34.1,29.2,30.24,East,101,0.0,0.0,82,0.00,,,0.01,Wunderground v.1.15,2013-01-07 17:21:00,
2013-01-07 12:31:00,33.6,28.7,30.24,East,90,0.0,1.0,82,0.00,,,0.01,Wunderground v.1.15,2013-01-07 17:31:00,
2013-01-07 12:36:00,33.5,28.6,30.24,East,89,0.0,1.0,82,0.00,,,0.01,Wunderground v.1.15,2013-01-07 17:36:00,
2013-01-07 12:41:00,33.6,28.7,30.24,East,98,0.0,0.0,82,0.00,,,0.01,Wunderground v.1.15,2013-01-07 17:41:00,
2013-01-07 12:51:00,33.4,28.5,30.24,East,80,1.0,2.0,82,0.00,,,0.01,Wunderground v.1.15,2013-01-07 17:51:00,
2013-01-07 13:01:00,33.4,28.5,30.25,East,89,1.0,1.0,82,0.00,,,0.01,Wunderground v.1.15,2013-01-07 18:01:00,
2013-01-07 13:06:00,33.6,28.7,30.25,East,89,1.0,1.0,82,0.00,,,0.02,Wunderground v.1.15,2013-01-07 18:06:00,
2013-01-07 13:11:00,33.5,28.3,30.25,East,92,0.0,0.0,81,0.00,,,0.02,Wunderground v.1.15,2013-01-07 18:11:00,
2013-01-07 13:16:00,33.3,28.1,30.25,East,91,0.0,0.0,81,0.00,,,0.02,Wunderground v.1.15,2013-01-07 18:16:00,
2013-01-07 13:21:00,33.1,27.9,30.25,East,92,0.0,0.0,81,0.00,,,0.02,Wunderground v.1.15,2013-01-07 18:21:00,
2013-01-07 13:26:00,33.1,28.2,30.26,East,91,0.0,0.0,82,0.00,,,0.02,Wunderground v.1.15,2013-01-07 18:26:00,
2013-01-07 13:31:00,33.0,27.8,30.26,East,92,0.0,1.0,81,0.00,,,0.02,Wunderground v.1.15,2013-01-07 18:31:00,
2013-01-07 13:36:00,33.0,28.1,30.25,East,92,1.0,1.0,82,0.00,,,0.02,Wunderground v.1.15,2013-01-07 18:36:00,
2013-01-07 13:41:00,33.1,28.2,30.25,East,92,1.0,1.0,82,0.00,,,0.02,Wunderground v.1.15,2013-01-07 18:41:00,
2013-01-07 13:51:00,33.1,27.9,30.26,East,99,1.0,1.0,81,0.00,,,0.02,Wunderground v.1.15,2013-01-07 18:51:00,
2013-01-07 13:56:00,33.0,28.1,30.26,East,98,1.0,2.0,82,0.00,,,0.02,Wunderground v.1.15,2013-01-07 18:56:00,
2013-01-07 14:01:00,32.8,27.6,30.26,ESE,106,0.0,1.0,81,0.00,,,0.02,Wunderground v.1.15,2013-01-07 19:01:00,
2013-01-07 14:06:00,32.6,27.7,30.27,ESE,105,1.0,1.0,82,0.00,,,0.02,Wunderground v.1.15,2013-01-07 19:06:00,
2013-01-07 14:16:00,32.6,27.7,30.27,ESE,119,0.0,1.0,82,0.00,,,0.02,Wunderground v.1.15,2013-01-07 19:16:00,
2013-01-07 14:21:00,32.6,27.7,30.28,ESE,119,0.0,0.0,82,0.00,,,0.02,Wunderground v.1.15,2013-01-07 19:21:00,
2013-01-07 14:26:00,32.6,27.7,30.28,ESE,119,0.0,0.0,82,0.00,,,0.02,Wunderground v.1.15,2013-01-07 19:26:00,
2013-01-07 14:36:00,32.6,27.7,30.28,ESE,119,0.0,0.0,82,0.00,,,0.02,Wunderground v.1.15,2013-01-07 19:36:00,
2013-01-07 14:41:00,32.6,27.7,30.28,ESE,119,0.0,0.0,82,0.00,,,0.02,Wunderground v.1.15,2013-01-07 19:41:00,
2013-01-07 14:51:00,32.4,27.5,30.28,ESE,119,1.0,1.0,82,0.00,,,0.02,Wunderground v.1.15,2013-01-07 19:51:00,
2013-01-07 15:01:00,32.3,27.4,30.29,ESE,119,0.0,0.0,82,0.00,,,0.02,Wunderground v.1.15,2013-01-07 20:01:00,
2013-01-07 15:06:00,32.3,27.4,30.29,ESE,119,0.0,0.0,82,0.00,,,0.02,Wunderground v.1.15,2013-01-07 20:06:00,
2013-01-07 15:11:00,32.1,27.2,30.30,ESE,119,0.0,0.0,82,0.00,,,0.02,Wunderground v.1.15,2013-01-07 20:11:00,
2013-01-07 15:21:00,31.8,26.9,30.30,ESE,119,0.0,0.0,82,0.00,,,0.02,Wunderground v.1.15,2013-01-07 20:21:00,
2013-01-07 15:26:00,31.6,27.0,30.30,ESE,119,0.0,0.0,83,0.00,,,0.02,Wunderground v.1.15,2013-01-07 20:26:00,
2013-01-07 15:31:00,31.5,26.9,30.30,ESE,119,0.0,0.0,83,0.00,,,0.02,Wunderground v.1.15,2013-01-07 20:31:00,
2013-01-07 15:36:00,31.5,26.9,30.30,ESE,119,0.0,0.0,83,0.00,,,0.02,Wunderground v.1.15,2013-01-07 20:36:00,
2013-01-07 15:46:00,31.4,26.8,30.30,ESE,119,0.0,0.0,83,0.00,,,0.02,Wunderground v.1.15,2013-01-07 20:46:00,
2013-01-07 15:51:00,31.4,26.8,30.30,ESE,119,0.0,0.0,83,0.00,,,0.02,Wunderground v.1.15,2013-01-07 20:51:00,
2013-01-07 16:01:00,31.2,26.6,30.32,ESE,119,0.0,0.0,83,0.00,,,0.02,Wunderground v.1.15,2013-01-07 21:01:00,
2013-01-07 16:11:00,30.9,26.6,30.32,ESE,119,0.0,0.0,84,0.00,,,0.02,Wunderground v.1.15,2013-01-07 21:11:00,
2013-01-07 16:16:00,30.8,26.5,30.32,ESE,119,0.0,0.0,84,0.00,,,0.02,Wunderground v.1.15,2013-01-07 21:16:00,
2013-01-07 16:26:00,30.5,26.5,30.32,ESE,119,0.0,0.0,85,0.00,,,0.02,Wunderground v.1.15,2013-01-07 21:26:00,
2013-01-07 16:31:00,30.2,26.2,30.32,ESE,119,0.0,0.0,85,0.00,,,0.02,Wunderground v.1.15,2013-01-07 21:31:00,
2013-01-07 16:41:00,29.7,25.7,30.33,ESE,119,0.0,0.0,85,0.00,,,0.02,Wunderground v.1.15,2013-01-07 21:41:00,
2013-01-07 16:51:00,29.4,26.0,30.33,ESE,119,0.0,0.0,87,0.00,,,0.02,Wunderground v.1.15,2013-01-07 21:51:00,
2013-01-07 16:56:00,29.2,25.8,30.33,ESE,119,0.0,0.0,87,0.00,,,0.02,Wunderground v.1.15,2013-01-07 21:56:00,
2013-01-07 17:01:00,29.0,25.6,30.32,ESE,119,0.0,0.0,87,0.00,,,0.02,Wunderground v.1.15,2013-01-07 22:01:00,
2013-01-07 17:06:00,28.8,25.4,30.33,ESE,119,0.0,0.0,87,0.00,,,0.02,Wunderground v.1.15,2013-01-07 22:06:00,
2013-01-07 17:11:00,28.5,25.1,30.33,ESE,119,0.0,0.0,87,0.00,,,0.02,Wunderground v.1.15,2013-01-07 22:11:00,
2013-01-07 17:21:00,28.2,25.1,30.33,ESE,119,0.0,0.0,88,0.00,,,0.02,Wunderground v.1.15,2013-01-07 22:21:00,
2013-01-07 17:26:00,28.0,24.9,30.33,ESE,119,0.0,0.0,88,0.00,,,0.02,Wunderground v.1.15,2013-01-07 22:26:00,
2013-01-07 17:31:00,28.0,25.2,30.33,ESE,119,0.0,0.0,89,0.00,,,0.02,Wunderground v.1.15,2013-01-07 22:31:00,
2013-01-07 17:41:00,27.9,25.1,30.33,ESE,119,0.0,0.0,89,0.00,,,0.02,Wunderground v.1.15,2013-01-07 22:41:00,
2013-01-07 17:51:00,27.6,25.1,30.33,ESE,119,0.0,0.0,90,0.00,,,0.02,Wunderground v.1.15,2013-01-07 22:51:00,
2013-01-07 17:56:00,27.4,24.9,30.33,ESE,119,0.0,0.0,90,0.00,,,0.02,Wunderground v.1.15,2013-01-07 22:56:00,
2013-01-07 18:01:00,27.1,24.6,30.34,ESE,119,0.0,0.0,90,0.00,,,0.02,Wunderground v.1.15,2013-01-07 23:01:00,
2013-01-07 18:06:00,27.0,24.5,30.34,ESE,119,0.0,0.0,90,0.00,,,0.02,Wunderground v.1.15,2013-01-07 23:06:00,
2013-01-07 18:11:00,26.7,24.2,30.35,ESE,119,0.0,0.0,90,0.00,,,0.02,Wunderground v.1.15,2013-01-07 23:11:00,
2013-01-07 18:21:00,26.5,24.2,30.35,ESE,119,0.0,0.0,91,0.00,,,0.02,Wunderground v.1.15,2013-01-07 23:21:00,
2013-01-07 18:31:00,26.4,24.1,30.35,ESE,119,0.0,0.0,91,0.00,,,0.02,Wunderground v.1.15,2013-01-07 23:31:00,
2013-01-07 18:41:00,26.3,24.3,30.35,ESE,119,0.0,0.0,92,0.00,,,0.02,Wunderground v.1.15,2013-01-07 23:41:00,
2013-01-07 18:51:00,26.1,24.1,30.35,ESE,119,0.0,0.0,92,0.00,,,0.02,Wunderground v.1.15,2013-01-07 23:51:00,
2013-01-07 18:56:00,26.0,24.0,30.35,ESE,119,0.0,0.0,92,0.00,,,0.02,Wunderground v.1.15,2013-01-07 23:56:00,
2013-01-07 19:06:00,26.1,24.4,30.35,ESE,119,0.0,0.0,93,0.00,,,0.02,Wunderground v.1.15,2013-01-08 00:06:00,
2013-01-07 19:11:00,26.0,24.3,30.34,ESE,119,0.0,0.0,93,0.00,,,0.02,Wunderground v.1.15,2013-01-08 00:11:00,
2013-01-07 19:21:00,26.1,24.4,30.34,ESE,119,0.0,0.0,93,0.00,,,0.02,Wunderground v.1.15,2013-01-08 00:21:00,
2013-01-07 19:26:00,26.2,24.5,30.34,ESE,119,0.0,0.0,93,0.00,,,0.02,Wunderground v.1.15,2013-01-08 00:26:00,
2013-01-07 19:31:00,26.2,24.5,30.34,ESE,119,0.0,0.0,93,0.00,,,0.02,Wunderground v.1.15,2013-01-08 00:31:00,
2013-01-07 19:41:00,26.2,24.5,30.34,ESE,119,0.0,0.0,93,0.00,,,0.02,Wunderground v.1.15,2013-01-08 00:41:00,
2013-01-07 19:51:00,26.1,24.4,30.34,ESE,119,0.0,0.0,93,0.00,,,0.02,Wunderground v.1.15,2013-01-08 00:51:00,
2013-01-07 20:01:00,26.0,24.3,30.34,ESE,119,0.0,0.0,93,0.00,,,0.02,Wunderground v.1.15,2013-01-08 01:01:00,
2013-01-07 20:06:00,26.0,24.3,30.34,ESE,119,0.0,0.0,93,0.00,,,0.02,Wunderground v.1.15,2013-01-08 01:06:00,
2013-01-07 20:11:00,26.0,24.3,30.34,ESE,119,0.0,0.0,93,0.00,,,0.02,Wunderground v.1.15,2013-01-08 01:11:00,
2013-01-07 20:21:00,25.9,24.2,30.34,ESE,119,0.0,0.0,93,0.00,,,0.02,Wunderground v.1.15,2013-01-08 01:21:00,
2013-01-07 20:31:00,25.8,23.8,30.34,ESE,119,0.0,0.0,92,0.00,,,0.02,Wunderground v.1.15,2013-01-08 01:31:00,
2013-01-07 20:41:00,25.7,23.7,30.33,ESE,119,0.0,0.0,92,0.00,,,0.02,Wunderground v.1.15,2013-01-08 01:41:00,
2013-01-07 20:51:00,25.4,23.4,30.33,ESE,119,0.0,0.0,92,0.00,,,0.02,Wunderground v.1.15,2013-01-08 01:51:00,
2013-01-07 21:01:00,25.1,23.1,30.33,ESE,119,0.0,0.0,92,0.00,,,0.02,Wunderground v.1.15,2013-01-08 02:01:00,
2013-01-07 21:11:00,24.9,22.9,30.33,ESE,119,0.0,0.0,92,0.00,,,0.02,Wunderground v.1.15,2013-01-08 02:11:00,
2013-01-07 21:21:00,24.5,22.5,30.33,ESE,119,0.0,0.0,92,0.00,,,0.02,Wunderground v.1.15,2013-01-08 02:21:00,
2013-01-07 21:31:00,24.1,22.1,30.33,ESE,119,0.0,0.0,92,0.00,,,0.02,Wunderground v.1.15,2013-01-08 02:31:00,
2013-01-07 21:36:00,24.0,22.0,30.33,ESE,119,0.0,0.0,92,0.00,,,0.02,Wunderground v.1.15,2013-01-08 02:36:00,
2013-01-07 21:46:00,23.7,22.0,30.33,ESE,119,0.0,0.0,93,0.00,,,0.02,Wunderground v.1.15,2013-01-08 02:46:00,
2013-01-07 21:56:00,23.4,21.4,30.33,ESE,119,0.0,0.0,92,0.00,,,0.02,Wunderground v.1.15,2013-01-08 02:56:00,
2013-01-07 22:01:00,23.4,21.7,30.33,ESE,119,0.0,0.0,93,0.00,,,0.02,Wunderground v.1.15,2013-01-08 03:01:00,
2013-01-07 22:06:00,23.6,21.9,30.33,ESE,119,0.0,0.0,93,0.00,,,0.02,Wunderground v.1.15,2013-01-08 03:06:00,
2013-01-07 22:16:00,23.7,22.0,30.33,ESE,119,0.0,0.0,93,0.00,,,0.02,Wunderground v.1.15,2013-01-08 03:16:00,
2013-01-07 22:26:00,23.4,21.7,30.33,ESE,119,0.0,0.0,93,0.00,,,0.02,Wunderground v.1.15,2013-01-08 03:26:00,
2013-01-07 22:36:00,22.9,21.2,30.33,ESE,119,0.0,0.0,93,0.00,,,0.02,Wunderground v.1.15,2013-01-08 03:36:00,
2013-01-07 22:41:00,22.7,21.0,30.33,ESE,119,0.0,0.0,93,0.00,,,0.02,Wunderground v.1.15,2013-01-08 03:41:00,
2013-01-07 22:51:00,23.1,21.6,30.33,ESE,119,0.0,0.0,94,0.00,,,0.02,Wunderground v.1.15,2013-01-08 03:51:00,
2013-01-07 23:01:00,23.6,22.1,30.32,ESE,119,0.0,0.0,94,0.00,,,0.02,Wunderground v.1.15,2013-01-08 04:01:00,
2013-01-07 23:11:00,23.4,21.9,30.32,ESE,119,0.0,0.0,94,0.00,,,0.02,Wunderground v.1.15,2013-01-08 04:11:00,
2013-01-07 23:16:00,23.3,21.8,30.32,ESE,119,0.0,0.0,94,0.00,,,0.02,Wunderground v.1.15,2013-01-08 04:16:00,
2013-01-07 23:21:00,23.2,21.7,30.32,ESE,119,0.0,0.0,94,0.00,,,0.02,Wunderground v.1.15,2013-01-08 04:21:00,
2013-01-07 23:31:00,23.3,21.8,30.31,ESE,119,0.0,0.0,94,0.00,,,0.02,Wunderground v.1.15,2013-01-08 04:31:00,
2013-01-07 23:41:00,23.6,22.1,30.31,ESE,119,0.0,0.0,94,0.00,,,0.02,Wunderground v.1.15,2013-01-08 04:41:00,
2013-01-07 23:51:00,24.1,22.9,30.31,ESE,119,0.0,0.0,95,0.00,,,0.02,Wunderground v.1.15,2013-01-08 04:51:00,
2013-01-07 23:56:00,24.3,23.1,30.31,ESE,119,0.0,0.0,95,0.00,,,0.02,Wunderground v.1.15,2013-01-08 04:56:00,